Time,TemperatureF,DewpointF,PressureIn,WindDirection,WindDirectionDegrees,WindSpeedMPH,WindSpeedGustMPH,Humidity,HourlyPrecipIn,Conditions,Clouds,dailyrainin,SolarRadiationWatts/m^2,SoftwareType,DateUTC
2013-10-08 00:05:00,54.2,43.9,29.84,SSE,151,6.0,7.0,68,0.00,,SKC,0.00,0.00,VWS V14.00,2013-10-08 05:05:00,
2013-10-08 00:10:00,54.2,43.9,29.84,ESE,120,4.0,5.0,68,0.00,,SKC,0.00,0.00,VWS V14.00,2013-10-08 05:10:00,
2013-10-08 00:15:00,54.0,44.1,29.84,SSE,165,4.0,6.0,69,0.00,,SKC,0.00,0.00,VWS V14.00,2013-10-08 05:15:00,
2013-10-08 00:20:00,53.8,44.3,29.84,SE,146,6.0,6.0,70,0.00,,SKC,0.00,0.00,VWS V14.00,2013-10-08 05:20:00,
2013-10-08 00:25:00,53.7,44.2,29.84,SE,130,5.0,6.0,70,0.00,,SKC,0.00,0.00,VWS V14.00,2013-10-08 05:25:00,
2013-10-08 00:30:00,53.5,44.3,29.84,SSE,165,2.0,6.0,71,0.00,,SKC,0.00,0.00,VWS V14.00,2013-10-08 05:30:00,
2013-10-08 00:35:00,53.5,44.3,29.83,SE,146,6.0,9.0,71,0.00,,SKC,0.00,0.00,VWS V14.00,2013-10-08 05:35:00,
2013-10-08 00:40:00,53.4,44.6,29.83,SE,142,6.0,8.0,72,0.00,,SKC,0.00,0.00,VWS V14.00,2013-10-08 05:40:00,
2013-10-08 00:45:00,53.3,44.5,29.83,SE,145,6.0,10.0,72,0.00,,SKC,0.00,0.00,VWS V14.00,2013-10-08 05:45:00,
2013-10-08 00:50:00,53.2,44.8,29.83,SSE,148,3.0,11.0,73,0.00,,SKC,0.00,0.00,VWS V14.00,2013-10-08 05:50:00,
2013-10-08 00:55:00,53.1,44.7,29.83,SE,136,6.0,7.0,73,0.00,,SKC,0.00,0.00,VWS V14.00,2013-10-08 05:55:00,
2013-10-08 01:00:00,53.0,45.0,29.83,SE,137,3.0,8.0,74,0.00,,SKC,0.00,0.00,VWS V14.00,2013-10-08 06:00:00,
2013-10-08 01:05:00,52.8,44.8,29.83,SSE,150,4.0,10.0,74,0.00,,SKC,0.00,0.00,VWS V14.00,2013-10-08 06:05:00,
2013-10-08 01:10:00,52.8,44.8,29.83,SE,146,10.0,10.0,74,0.00,,SKC,0.00,0.00,VWS V14.00,2013-10-08 06:10:00,
2013-10-08 01:15:00,52.6,44.9,29.83,SSE,148,5.0,9.0,75,0.00,,SKC,0.00,0.00,VWS V14.00,2013-10-08 06:15:00,
2013-10-08 01:20:00,52.6,44.9,29.82,SE,136,5.0,9.0,75,0.00,,SKC,0.00,0.00,VWS V14.00,2013-10-08 06:20:00,
2013-10-08 01:25:00,52.5,44.8,29.82,SE,144,5.0,7.0,75,0.00,,SKC,0.00,0.00,VWS V14.00,2013-10-08 06:25:00,
2013-10-08 01:30:00,52.3,45.0,29.82,SE,140,5.0,7.0,76,0.00,,SKC,0.00,0.00,VWS V14.00,2013-10-08 06:30:00,
2013-10-08 01:35:00,52.2,44.9,29.82,ESE,123,5.0,11.0,76,0.00,,SKC,0.00,0.00,VWS V14.00,2013-10-08 06:35:00,
2013-10-08 01:40:00,52.1,45.1,29.81,SE,142,5.0,10.0,77,0.00,,SKC,0.00,0.00,VWS V14.00,2013-10-08 06:40:00,
2013-10-08 01:45:00,51.9,44.9,29.81,SE,129,5.0,8.0,77,0.00,,SKC,0.00,0.00,VWS V14.00,2013-10-08 06:45:00,
2013-10-08 01:50:00,51.8,44.8,29.81,SE,144,4.0,10.0,77,0.00,,SKC,0.00,0.00,VWS V14.00,2013-10-08 06:50:00,
2013-10-08 01:55:00,51.7,45.1,29.81,SE,140,3.0,10.0,78,0.00,,SKC,0.00,0.00,VWS V14.00,2013-10-08 06:55:00,
2013-10-08 02:00:00,51.6,45.0,29.81,SE,130,6.0,8.0,78,0.00,,SKC,0.00,0.00,VWS V14.00,2013-10-08 07:00:00,
2013-10-08 02:05:00,51.5,44.9,29.81,SSE,147,4.0,8.0,78,0.00,,SKC,0.00,0.00,VWS V14.00,2013-10-08 07:05:00,
2013-10-08 02:10:00,51.5,45.2,29.81,South,181,8.0,11.0,79,0.00,,SKC,0.00,0.00,VWS V14.00,2013-10-08 07:10:00,
2013-10-08 02:15:00,51.4,45.1,29.80,SE,143,4.0,10.0,79,0.00,,SKC,0.00,0.00,VWS V14.00,2013-10-08 07:15:00,
2013-10-08 02:20:00,51.5,45.2,29.80,SE,141,5.0,12.0,79,0.00,,SKC,0.00,0.00,VWS V14.00,2013-10-08 07:20:00,
2013-10-08 02:25:00,51.6,45.3,29.80,SE,128,9.0,11.0,79,0.00,,SKC,0.00,0.00,VWS V14.00,2013-10-08 07:25:00,
2013-10-08 02:30:00,51.7,45.1,29.80,SE,138,10.0,11.0,78,0.00,,SKC,0.00,0.00,VWS V14.00,2013-10-08 07:30:00,
2013-10-08 02:35:00,51.7,45.4,29.80,SE,132,6.0,10.0,79,0.00,,SKC,0.00,0.00,VWS V14.00,2013-10-08 07:35:00,
2013-10-08 02:40:00,51.7,45.1,29.80,SE,134,6.0,12.0,78,0.00,,SKC,0.00,0.00,VWS V14.00,2013-10-08 07:40:00,
2013-10-08 02:46:00,51.7,45.1,29.80,SSE,152,12.0,13.0,78,0.00,,SKC,0.00,0.00,VWS V14.00,2013-10-08 07:46:00,
2013-10-08 02:51:00,51.6,45.0,29.80,SE,136,5.0,9.0,78,0.00,,SKC,0.00,0.00,VWS V14.00,2013-10-08 07:51:00,
2013-10-08 02:56:00,51.6,45.3,29.80,SE,140,10.0,12.0,79,0.00,,SKC,0.00,0.00,VWS V14.00,2013-10-08 07:56:00,
2013-10-08 03:01:00,51.5,45.2,29.80,SE,144,6.0,10.0,79,0.00,,SKC,0.00,0.00,VWS V14.00,2013-10-08 08:01:00,
2013-10-08 03:06:00,51.4,45.1,29.79,SSE,157,7.0,10.0,79,0.00,,SKC,0.00,0.00,VWS V14.00,2013-10-08 08:06:00,
2013-10-08 03:11:00,51.4,45.1,29.79,SSE,148,6.0,11.0,79,0.00,,SKC,0.00,0.00,VWS V14.00,2013-10-08 08:11:00,
2013-10-08 03:16:00,51.4,45.1,29.79,SE,134,6.0,9.0,79,0.00,,SKC,0.00,0.00,VWS V14.00,2013-10-08 08:16:00,
2013-10-08 03:21:00,51.3,45.0,29.78,SE,146,5.0,10.0,79,0.00,,SKC,0.00,0.00,VWS V14.00,2013-10-08 08:21:00,
2013-10-08 03:26:00,51.4,45.1,29.79,SSE,148,6.0,11.0,79,0.00,,SKC,0.00,0.00,VWS V14.00,2013-10-08 08:26:00,
2013-10-08 03:31:00,51.4,45.1,29.79,SE,139,6.0,12.0,79,0.00,,SKC,0.00,0.00,VWS V14.00,2013-10-08 08:31:00,
2013-10-08 03:36:00,51.5,45.2,29.78,SSE,148,7.0,11.0,79,0.00,,SKC,0.00,0.00,VWS V14.00,2013-10-08 08:36:00,
2013-10-08 03:41:00,51.5,45.2,29.78,SE,144,5.0,10.0,79,0.00,,SKC,0.00,0.00,VWS V14.00,2013-10-08 08:41:00,
2013-10-08 03:46:00,51.4,45.1,29.78,SE,136,9.0,11.0,79,0.00,,SKC,0.00,0.00,VWS V14.00,2013-10-08 08:46:00,
2013-10-08 03:51:00,51.4,45.1,29.78,SE,132,5.0,12.0,79,0.00,,SKC,0.00,0.00,VWS V14.00,2013-10-08 08:51:00,
2013-10-08 03:56:00,51.4,45.1,29.78,SE,130,6.0,12.0,79,0.00,,SKC,0.00,0.00,VWS V14.00,2013-10-08 08:56:00,
2013-10-08 04:01:00,51.3,45.0,29.78,SE,129,8.0,10.0,79,0.00,,SKC,0.00,0.00,VWS V14.00,2013-10-08 09:01:00,
2013-10-08 04:06:00,51.3,45.0,29.78,SE,134,4.0,10.0,79,0.00,,SKC,0.00,0.00,VWS V14.00,2013-10-08 09:06:00,
2013-10-08 04:11:00,51.2,44.9,29.78,SSE,149,6.0,11.0,79,0.00,,SKC,0.00,0.00,VWS V14.00,2013-10-08 09:11:00,
2013-10-08 04:16:00,51.2,44.9,29.78,South,178,7.0,11.0,79,0.00,,SKC,0.00,0.00,VWS V14.00,2013-10-08 09:16:00,
2013-10-08 04:21:00,51.1,44.8,29.77,SE,135,9.0,11.0,79,0.00,,SKC,0.00,0.00,VWS V14.00,2013-10-08 09:21:00,
2013-10-08 04:26:00,51.1,44.8,29.77,SE,132,6.0,12.0,79,0.00,,SKC,0.00,0.00,VWS V14.00,2013-10-08 09:26:00,
2013-10-08 04:31:00,51.1,44.8,29.76,SSE,153,9.0,14.0,79,0.00,,SKC,0.00,0.00,VWS V14.00,2013-10-08 09:31:00,
2013-10-08 04:36:00,51.1,44.8,29.77,SSE,163,6.0,14.0,79,0.00,,SKC,0.00,0.00,VWS V14.00,2013-10-08 09:36:00,
2013-10-08 04:41:00,51.1,44.8,29.77,SE,132,8.0,12.0,79,0.00,,SKC,0.00,0.00,VWS V14.00,2013-10-08 09:41:00,
2013-10-08 04:46:00,51.0,44.7,29.76,SE,128,6.0,12.0,79,0.00,,SKC,0.00,0.00,VWS V14.00,2013-10-08 09:46:00,
2013-10-08 04:51:00,50.9,44.6,29.76,SSE,149,6.0,12.0,79,0.00,,SKC,0.00,0.00,VWS V14.00,2013-10-08 09:51:00,
2013-10-08 04:56:00,51.1,44.8,29.76,SE,125,6.0,12.0,79,0.00,,SKC,0.00,0.00,VWS V14.00,2013-10-08 09:56:00,
2013-10-08 05:01:00,51.1,44.5,29.76,South,174,6.0,16.0,78,0.00,,SKC,0.00,0.00,VWS V14.00,2013-10-08 10:01:00,
2013-10-08 05:06:00,51.2,44.9,29.76,South,182,6.0,13.0,79,0.00,,SKC,0.00,0.00,VWS V14.00,2013-10-08 10:06:00,
2013-10-08 05:11:00,51.2,44.9,29.76,SE,142,9.0,15.0,79,0.00,,SKC,0.00,0.00,VWS V14.00,2013-10-08 10:11:00,
2013-10-08 05:16:00,51.2,44.6,29.75,SE,134,8.0,14.0,78,0.00,,SKC,0.00,0.00,VWS V14.00,2013-10-08 10:16:00,
2013-10-08 05:21:00,51.3,44.7,29.75,SSE,159,6.0,9.0,78,0.00,,SKC,0.00,0.00,VWS V14.00,2013-10-08 10:21:00,
2013-10-08 05:26:00,51.3,44.7,29.75,SE,146,8.0,13.0,78,0.00,,SKC,0.00,0.00,VWS V14.00,2013-10-08 10:26:00,
2013-10-08 05:31:00,51.5,44.5,29.75,East,96,11.0,18.0,77,0.00,,SKC,0.00,0.00,VWS V14.00,2013-10-08 10:31:00,
2013-10-08 05:36:00,51.9,44.6,29.74,South,177,7.0,15.0,76,0.00,,SKC,0.00,0.00,VWS V14.00,2013-10-08 10:36:00,
2013-10-08 05:41:00,52.1,44.8,29.74,SE,136,9.0,15.0,76,0.00,,SKC,0.00,0.00,VWS V14.00,2013-10-08 10:41:00,
2013-10-08 05:46:00,52.2,44.5,29.74,SE,135,7.0,13.0,75,0.00,,SKC,0.00,0.00,VWS V14.00,2013-10-08 10:46:00,
2013-10-08 05:51:00,52.3,44.6,29.74,SSE,149,5.0,16.0,75,0.00,,SKC,0.00,0.00,VWS V14.00,2013-10-08 10:51:00,
2013-10-08 05:56:00,52.3,44.6,29.74,SSE,153,7.0,15.0,75,0.00,,SKC,0.00,0.00,VWS V14.00,2013-10-08 10:56:00,
2013-10-08 06:01:00,52.2,44.5,29.74,SE,130,10.0,15.0,75,0.00,,SKC,0.00,0.00,VWS V14.00,2013-10-08 11:01:00,
2013-10-08 06:06:00,52.1,44.4,29.74,SSE,159,14.0,14.0,75,0.00,,SKC,0.00,0.00,VWS V14.00,2013-10-08 11:06:00,
2013-10-08 06:11:00,52.2,44.5,29.74,SE,129,9.0,17.0,75,0.00,,SKC,0.00,0.00,VWS V14.00,2013-10-08 11:11:00,
2013-10-08 06:16:00,52.2,44.5,29.74,SE,142,11.0,15.0,75,0.00,,SKC,0.00,0.00,VWS V14.00,2013-10-08 11:16:00,
2013-10-08 06:21:00,52.2,44.5,29.74,SE,144,13.0,16.0,75,0.00,,SKC,0.00,0.00,VWS V14.00,2013-10-08 11:21:00,
2013-10-08 06:26:00,52.0,44.3,29.73,SE,136,14.0,14.0,75,0.00,,SKC,0.00,0.00,VWS V14.00,2013-10-08 11:26:00,
2013-10-08 06:31:00,51.9,44.2,29.73,SE,126,7.0,13.0,75,0.00,,SKC,0.00,0.00,VWS V14.00,2013-10-08 11:31:00,
2013-10-08 06:37:00,51.8,44.1,29.74,SSE,161,12.0,13.0,75,0.00,,SKC,0.00,0.00,VWS V14.00,2013-10-08 11:37:00,
2013-10-08 06:42:00,51.8,44.1,29.74,South,172,10.0,14.0,75,0.00,,SKC,0.00,0.00,VWS V14.00,2013-10-08 11:42:00,
2013-10-08 06:47:00,52.0,44.3,29.74,SSE,153,10.0,15.0,75,0.00,,SKC,0.00,0.00,VWS V14.00,2013-10-08 11:47:00,
2013-10-08 06:52:00,52.0,44.3,29.73,SE,144,11.0,14.0,75,0.00,,SKC,0.00,0.00,VWS V14.00,2013-10-08 11:52:00,
2013-10-08 06:57:00,51.9,44.2,29.73,SE,142,10.0,13.0,75,0.00,,SKC,0.00,0.00,VWS V14.00,2013-10-08 11:57:00,
2013-10-08 07:02:00,51.9,44.2,29.73,SE,135,9.0,14.0,75,0.00,,SKC,0.00,0.00,VWS V14.00,2013-10-08 12:02:00,
2013-10-08 07:07:00,51.9,44.2,29.73,SSE,147,5.0,16.0,75,0.00,,SKC,0.00,0.00,VWS V14.00,2013-10-08 12:07:00,
2013-10-08 07:12:00,51.9,44.2,29.73,SE,138,3.0,10.0,75,0.00,,SKC,0.00,0.00,VWS V14.00,2013-10-08 12:12:00,
2013-10-08 07:17:00,51.9,43.9,29.74,SSE,163,3.0,11.0,74,0.00,,SKC,0.00,0.00,VWS V14.00,2013-10-08 12:17:00,
2013-10-08 07:22:00,52.0,44.0,29.73,SE,132,10.0,11.0,74,0.00,,SKC,0.00,0.00,VWS V14.00,2013-10-08 12:22:00,
2013-10-08 07:27:00,52.2,44.2,29.74,SSE,152,1.0,11.0,74,0.00,,SKC,0.00,5.00,VWS V14.00,2013-10-08 12:27:00,
2013-10-08 07:32:00,52.4,44.0,29.74,SE,144,6.0,10.0,73,0.00,,SKC,0.00,7.00,VWS V14.00,2013-10-08 12:32:00,
2013-10-08 07:37:00,52.6,44.2,29.74,South,188,8.0,10.0,73,0.00,,SKC,0.00,9.00,VWS V14.00,2013-10-08 12:37:00,
2013-10-08 07:42:00,52.7,44.3,29.73,South,184,9.0,13.0,73,0.00,,SKC,0.00,11.00,VWS V14.00,2013-10-08 12:42:00,
2013-10-08 07:47:00,52.9,44.5,29.73,SE,125,8.0,10.0,73,0.00,,SKC,0.00,18.00,VWS V14.00,2013-10-08 12:47:00,
2013-10-08 07:52:00,53.0,44.6,29.73,South,186,5.0,10.0,73,0.00,,SKC,0.00,25.00,VWS V14.00,2013-10-08 12:52:00,
2013-10-08 07:57:00,53.1,44.3,29.73,South,187,1.0,12.0,72,0.00,,SKC,0.00,33.00,VWS V14.00,2013-10-08 12:57:00,
2013-10-08 08:02:00,53.3,44.5,29.73,SSW,199,7.0,13.0,72,0.00,,SKC,0.00,46.00,VWS V14.00,2013-10-08 13:02:00,
2013-10-08 08:07:00,53.7,44.9,29.73,SE,144,10.0,14.0,72,0.00,,SKC,0.00,60.00,VWS V14.00,2013-10-08 13:07:00,
2013-10-08 08:12:00,54.2,44.6,29.73,South,179,5.0,19.0,70,0.00,,SKC,0.00,76.00,VWS V14.00,2013-10-08 13:12:00,
2013-10-08 08:17:00,54.6,45.0,29.73,South,169,9.0,16.0,70,0.00,,SKC,0.00,93.00,VWS V14.00,2013-10-08 13:17:00,
2013-10-08 08:22:00,55.0,45.4,29.73,South,191,9.0,12.0,70,0.00,,SKC,0.00,111.00,VWS V14.00,2013-10-08 13:22:00,
2013-10-08 08:27:00,55.4,45.4,29.73,ESE,121,6.0,14.0,69,0.00,,SKC,0.00,127.00,VWS V14.00,2013-10-08 13:27:00,
2013-10-08 08:32:00,55.6,45.6,29.73,SSE,163,5.0,11.0,69,0.00,,SKC,0.00,137.00,VWS V14.00,2013-10-08 13:32:00,
2013-10-08 08:37:00,55.8,45.4,29.73,SE,142,6.0,12.0,68,0.00,,SKC,0.00,153.00,VWS V14.00,2013-10-08 13:37:00,
2013-10-08 08:42:00,56.0,45.6,29.72,South,182,12.0,14.0,68,0.00,,SKC,0.00,149.00,VWS V14.00,2013-10-08 13:42:00,
2013-10-08 08:47:00,56.1,45.7,29.73,SE,142,5.0,14.0,68,0.00,,SKC,0.00,113.00,VWS V14.00,2013-10-08 13:47:00,
2013-10-08 08:52:00,56.1,45.7,29.73,SE,135,5.0,14.0,68,0.00,,SKC,0.00,171.00,VWS V14.00,2013-10-08 13:52:00,
2013-10-08 08:57:00,56.3,45.9,29.72,South,175,9.0,13.0,68,0.00,,SKC,0.00,209.00,VWS V14.00,2013-10-08 13:57:00,
2013-10-08 09:02:00,56.6,46.6,29.72,ESE,123,3.0,16.0,69,0.00,,SKC,0.00,243.00,VWS V14.00,2013-10-08 14:02:00,
2013-10-08 09:07:00,56.9,46.5,29.73,SSE,156,9.0,15.0,68,0.00,,SKC,0.00,258.00,VWS V14.00,2013-10-08 14:07:00,
2013-10-08 09:12:00,57.3,46.8,29.72,South,169,9.0,12.0,68,0.00,,SKC,0.00,264.00,VWS V14.00,2013-10-08 14:12:00,
2013-10-08 09:17:00,57.7,46.8,29.72,SSW,195,4.0,15.0,67,0.00,,SKC,0.00,279.00,VWS V14.00,2013-10-08 14:17:00,
2013-10-08 09:22:00,58.1,46.8,29.72,SE,133,5.0,17.0,66,0.00,,SKC,0.00,262.00,VWS V14.00,2013-10-08 14:22:00,
2013-10-08 09:27:00,58.5,47.6,29.72,South,177,7.0,14.0,67,0.00,,SKC,0.00,283.00,VWS V14.00,2013-10-08 14:27:00,
2013-10-08 09:32:00,58.7,47.4,29.72,South,187,9.0,14.0,66,0.00,,SKC,0.00,271.00,VWS V14.00,2013-10-08 14:32:00,
2013-10-08 09:37:00,59.0,47.3,29.72,South,186,15.0,17.0,65,0.00,,SKC,0.00,301.00,VWS V14.00,2013-10-08 14:37:00,
2013-10-08 09:42:00,59.4,47.7,29.72,SSE,154,6.0,15.0,65,0.00,,SKC,0.00,343.00,VWS V14.00,2013-10-08 14:42:00,
2013-10-08 09:47:00,59.7,47.5,29.72,SE,146,9.0,15.0,64,0.00,,SKC,0.00,353.00,VWS V14.00,2013-10-08 14:47:00,
2013-10-08 09:52:00,60.2,48.4,29.71,SSW,194,6.0,16.0,65,0.00,,SKC,0.00,371.00,VWS V14.00,2013-10-08 14:52:00,
2013-10-08 09:57:00,60.6,48.4,29.71,SSW,198,12.0,18.0,64,0.00,,SKC,0.00,387.00,VWS V14.00,2013-10-08 14:57:00,
2013-10-08 10:02:00,61.1,48.4,29.71,SE,144,7.0,18.0,63,0.00,,SKC,0.00,406.00,VWS V14.00,2013-10-08 15:02:00,
2013-10-08 10:07:00,61.6,48.5,29.71,SE,141,11.0,19.0,62,0.00,,SKC,0.00,434.00,VWS V14.00,2013-10-08 15:07:00,
2013-10-08 10:12:00,62.0,48.4,29.71,SSW,196,14.0,17.0,61,0.00,,SKC,0.00,116.00,VWS V14.00,2013-10-08 15:12:00,
2013-10-08 10:17:00,62.3,48.2,29.70,SSW,193,13.0,18.0,60,0.00,,SKC,0.00,492.00,VWS V14.00,2013-10-08 15:17:00,
2013-10-08 10:23:00,62.8,49.2,29.70,South,174,17.0,17.0,61,0.00,,SKC,0.00,506.00,VWS V14.00,2013-10-08 15:23:00,
2013-10-08 10:28:00,63.3,48.3,29.70,South,177,10.0,17.0,58,0.00,,SKC,0.00,506.00,VWS V14.00,2013-10-08 15:28:00,
2013-10-08 10:33:00,63.5,48.5,29.70,SSE,160,10.0,19.0,58,0.00,,SKC,0.00,149.00,VWS V14.00,2013-10-08 15:33:00,
2013-10-08 10:38:00,63.5,48.9,29.70,South,182,9.0,18.0,59,0.00,,SKC,0.00,492.00,VWS V14.00,2013-10-08 15:38:00,
2013-10-08 10:43:00,64.2,49.1,29.70,South,186,13.0,18.0,58,0.00,,SKC,0.00,482.00,VWS V14.00,2013-10-08 15:43:00,
2013-10-08 10:48:00,64.9,49.3,29.70,SSE,165,8.0,19.0,57,0.00,,SKC,0.00,512.00,VWS V14.00,2013-10-08 15:48:00,
2013-10-08 10:53:00,65.6,49.0,29.69,SSE,159,4.0,22.0,55,0.00,,SKC,0.00,512.00,VWS V14.00,2013-10-08 15:53:00,
2013-10-08 10:58:00,66.1,49.5,29.69,SSE,166,6.0,21.0,55,0.00,,SKC,0.00,497.00,VWS V14.00,2013-10-08 15:58:00,
2013-10-08 11:03:00,66.6,49.5,29.69,South,184,6.0,22.0,54,0.00,,SKC,0.00,561.00,VWS V14.00,2013-10-08 16:03:00,
2013-10-08 11:08:00,67.1,49.4,29.68,South,175,12.0,23.0,53,0.00,,SKC,0.00,592.00,VWS V14.00,2013-10-08 16:08:00,
2013-10-08 11:13:00,67.5,49.8,29.69,SE,140,7.0,22.0,53,0.00,,SKC,0.00,517.00,VWS V14.00,2013-10-08 16:13:00,
2013-10-08 11:18:00,68.2,49.9,29.69,SSE,167,5.0,20.0,52,0.00,,SKC,0.00,617.00,VWS V14.00,2013-10-08 16:18:00,
2013-10-08 11:23:00,68.6,50.3,29.68,SE,142,11.0,22.0,52,0.00,,SKC,0.00,360.00,VWS V14.00,2013-10-08 16:23:00,
2013-10-08 11:28:00,68.8,51.5,29.69,SSE,168,6.0,19.0,54,0.00,,SKC,0.00,587.00,VWS V14.00,2013-10-08 16:28:00,
2013-10-08 11:33:00,69.3,50.9,29.68,South,181,11.0,22.0,52,0.00,,SKC,0.00,561.00,VWS V14.00,2013-10-08 16:33:00,
2013-10-08 11:38:00,69.5,49.5,29.68,SSW,193,9.0,27.0,49,0.00,,SKC,0.00,383.00,VWS V14.00,2013-10-08 16:38:00,
2013-10-08 11:43:00,69.8,49.8,29.68,ESE,121,14.0,32.0,49,0.00,,SKC,0.00,529.00,VWS V14.00,2013-10-08 16:43:00,
2013-10-08 11:48:00,70.1,50.1,29.67,SSE,160,15.0,21.0,49,0.00,,SKC,0.00,613.00,VWS V14.00,2013-10-08 16:48:00,
2013-10-08 11:53:00,70.6,50.5,29.67,South,178,13.0,23.0,49,0.00,,SKC,0.00,631.00,VWS V14.00,2013-10-08 16:53:00,
2013-10-08 11:58:00,71.1,49.9,29.68,South,188,12.0,25.0,47,0.00,,SKC,0.00,554.00,VWS V14.00,2013-10-08 16:58:00,
2013-10-08 12:03:00,71.4,50.1,29.67,South,178,6.0,21.0,47,0.00,,SKC,0.00,601.00,VWS V14.00,2013-10-08 17:03:00,
2013-10-08 12:08:00,71.6,50.9,29.67,SSE,157,8.0,22.0,48,0.00,,SKC,0.00,555.00,VWS V14.00,2013-10-08 17:08:00,
2013-10-08 12:13:00,71.8,51.1,29.67,South,182,13.0,20.0,48,0.00,,SKC,0.00,628.00,VWS V14.00,2013-10-08 17:13:00,
2013-10-08 12:18:00,72.0,51.3,29.67,SE,140,7.0,23.0,48,0.00,,SKC,0.00,682.00,VWS V14.00,2013-10-08 17:18:00,
2013-10-08 12:23:00,72.3,51.0,29.67,SSW,208,14.0,27.0,47,0.00,,SKC,0.00,677.00,VWS V14.00,2013-10-08 17:23:00,
2013-10-08 12:28:00,72.1,50.8,29.67,SSE,161,14.0,24.0,47,0.00,,SKC,0.00,264.00,VWS V14.00,2013-10-08 17:28:00,
2013-10-08 12:33:00,71.8,49.9,29.66,South,181,17.0,22.0,46,0.00,,SKC,0.00,466.00,VWS V14.00,2013-10-08 17:33:00,
2013-10-08 12:38:00,72.0,51.3,29.66,SSW,206,14.0,20.0,48,0.00,,SKC,0.00,666.00,VWS V14.00,2013-10-08 17:38:00,
2013-10-08 12:43:00,72.6,51.2,29.66,South,174,7.0,24.0,47,0.00,,SKC,0.00,642.00,VWS V14.00,2013-10-08 17:43:00,
2013-10-08 12:48:00,73.4,51.4,29.66,South,171,13.0,19.0,46,0.00,,SKC,0.00,649.00,VWS V14.00,2013-10-08 17:48:00,
2013-10-08 12:53:00,74.0,52.5,29.66,South,182,12.0,21.0,47,0.00,,SKC,0.00,635.00,VWS V14.00,2013-10-08 17:53:00,
2013-10-08 12:58:00,74.5,51.2,29.66,South,190,15.0,27.0,44,0.00,,SKC,0.00,617.00,VWS V14.00,2013-10-08 17:58:00,
2013-10-08 13:03:00,74.5,50.6,29.66,South,178,12.0,27.0,43,0.00,,SKC,0.00,640.00,VWS V14.00,2013-10-08 18:03:00,
2013-10-08 13:08:00,74.5,50.6,29.66,South,188,22.0,22.0,43,0.00,,SKC,0.00,635.00,VWS V14.00,2013-10-08 18:08:00,
2013-10-08 13:13:00,74.8,50.2,29.66,SSE,155,15.0,30.0,42,0.00,,SKC,0.00,589.00,VWS V14.00,2013-10-08 18:13:00,
2013-10-08 13:18:00,74.9,49.6,29.66,South,169,16.0,28.0,41,0.00,,SKC,0.00,543.00,VWS V14.00,2013-10-08 18:18:00,
2013-10-08 13:23:00,74.8,49.5,29.65,SSE,164,12.0,26.0,41,0.00,,SKC,0.00,531.00,VWS V14.00,2013-10-08 18:23:00,
2013-10-08 13:28:00,74.7,50.1,29.65,SW,223,11.0,27.0,42,0.00,,SKC,0.00,410.00,VWS V14.00,2013-10-08 18:28:00,
2013-10-08 13:33:00,74.7,50.7,29.65,South,176,13.0,22.0,43,0.00,,SKC,0.00,424.00,VWS V14.00,2013-10-08 18:33:00,
2013-10-08 13:38:00,75.2,51.8,29.65,SSE,155,6.0,23.0,44,0.00,,SKC,0.00,605.00,VWS V14.00,2013-10-08 18:38:00,
2013-10-08 13:43:00,75.5,50.2,29.65,South,184,14.0,32.0,41,0.00,,SKC,0.00,478.00,VWS V14.00,2013-10-08 18:43:00,
2013-10-08 13:48:00,75.4,50.7,29.65,SSW,209,18.0,28.0,42,0.00,,SKC,0.00,663.00,VWS V14.00,2013-10-08 18:48:00,
2013-10-08 13:53:00,75.6,50.3,29.64,SSW,196,14.0,24.0,41,0.00,,SKC,0.00,663.00,VWS V14.00,2013-10-08 18:53:00,
2013-10-08 13:58:00,76.0,51.3,29.64,SSW,194,11.0,27.0,42,0.00,,SKC,0.00,629.00,VWS V14.00,2013-10-08 18:58:00,
2013-10-08 14:03:00,76.3,50.2,29.64,SSW,196,6.0,29.0,40,0.00,,SKC,0.00,589.00,VWS V14.00,2013-10-08 19:03:00,
2013-10-08 14:08:00,76.6,50.5,29.64,SSW,209,15.0,34.0,40,0.00,,SKC,0.00,545.00,VWS V14.00,2013-10-08 19:08:00,
2013-10-08 14:13:00,76.6,50.5,29.64,SSW,211,13.0,24.0,40,0.00,,SKC,0.00,603.00,VWS V14.00,2013-10-08 19:13:00,
2013-10-08 14:18:00,76.6,51.2,29.64,South,177,10.0,23.0,41,0.00,,SKC,0.00,334.00,VWS V14.00,2013-10-08 19:18:00,
2013-10-08 14:23:00,76.5,50.4,29.64,SSW,202,18.0,26.0,40,0.00,,SKC,0.00,281.00,VWS V14.00,2013-10-08 19:23:00,
2013-10-08 14:28:00,76.4,50.3,29.64,SE,128,12.0,26.0,40,0.00,,SKC,0.00,489.00,VWS V14.00,2013-10-08 19:28:00,
2013-10-08 14:33:00,76.6,52.5,29.64,SW,215,18.0,19.0,43,0.00,,SKC,0.00,686.00,VWS V14.00,2013-10-08 19:33:00,
2013-10-08 14:38:00,77.2,51.7,29.64,SSW,192,16.0,24.0,41,0.00,,SKC,0.00,619.00,VWS V14.00,2013-10-08 19:38:00,
2013-10-08 14:43:00,77.8,50.2,29.64,South,172,16.0,29.0,38,0.00,,SKC,0.00,599.00,VWS V14.00,2013-10-08 19:43:00,
2013-10-08 14:48:00,78.0,51.1,29.64,South,169,13.0,23.0,39,0.00,,SKC,0.00,434.00,VWS V14.00,2013-10-08 19:48:00,
2013-10-08 14:53:00,78.0,50.4,29.64,SSW,197,10.0,28.0,38,0.00,,SKC,0.00,415.00,VWS V14.00,2013-10-08 19:53:00,
2013-10-08 14:58:00,77.6,50.0,29.64,South,191,15.0,35.0,38,0.00,,SKC,0.00,264.00,VWS V14.00,2013-10-08 19:58:00,
2013-10-08 15:03:00,77.1,49.6,29.64,SSW,192,6.0,25.0,38,0.00,,SKC,0.00,271.00,VWS V14.00,2013-10-08 20:03:00,
2013-10-08 15:08:00,76.8,49.3,29.64,SSE,162,14.0,26.0,38,0.00,,SKC,0.00,323.00,VWS V14.00,2013-10-08 20:08:00,
2013-10-08 15:13:00,76.7,49.9,29.64,SE,134,9.0,20.0,39,0.00,,SKC,0.00,385.00,VWS V14.00,2013-10-08 20:13:00,
2013-10-08 15:18:00,76.7,49.2,29.64,South,190,14.0,29.0,38,0.00,,SKC,0.00,429.00,VWS V14.00,2013-10-08 20:18:00,
2013-10-08 15:23:00,76.9,50.1,29.64,SSW,211,12.0,20.0,39,0.00,,SKC,0.00,543.00,VWS V14.00,2013-10-08 20:23:00,
2013-10-08 15:28:00,77.1,50.3,29.64,South,184,6.0,18.0,39,0.00,,SKC,0.00,533.00,VWS V14.00,2013-10-08 20:28:00,
2013-10-08 15:33:00,77.4,49.8,29.64,SSW,194,9.0,21.0,38,0.00,,SKC,0.00,478.00,VWS V14.00,2013-10-08 20:33:00,
2013-10-08 15:38:00,77.6,50.0,29.63,South,174,14.0,31.0,38,0.00,,SKC,0.00,499.00,VWS V14.00,2013-10-08 20:38:00,
2013-10-08 15:43:00,77.9,51.0,29.64,SSE,167,11.0,23.0,39,0.00,,SKC,0.00,494.00,VWS V14.00,2013-10-08 20:43:00,
2013-10-08 15:48:00,78.2,50.5,29.64,SSE,149,11.0,20.0,38,0.00,,SKC,0.00,427.00,VWS V14.00,2013-10-08 20:48:00,
2013-10-08 15:53:00,78.3,52.0,29.64,SSE,163,6.0,17.0,40,0.00,,SKC,0.00,330.00,VWS V14.00,2013-10-08 20:53:00,
2013-10-08 15:58:00,78.0,48.9,29.64,South,177,15.0,24.0,36,0.00,,SKC,0.00,301.00,VWS V14.00,2013-10-08 20:58:00,
2013-10-08 16:03:00,77.6,49.3,29.64,SSW,209,22.0,26.0,37,0.00,,SKC,0.00,292.00,VWS V14.00,2013-10-08 21:03:00,
2013-10-08 16:08:00,77.1,48.8,29.64,South,183,11.0,30.0,37,0.00,,SKC,0.00,232.00,VWS V14.00,2013-10-08 21:08:00,
2013-10-08 16:13:00,76.7,49.2,29.64,SSE,161,7.0,24.0,38,0.00,,SKC,0.00,216.00,VWS V14.00,2013-10-08 21:13:00,
2013-10-08 16:18:00,76.4,48.9,29.64,South,180,9.0,32.0,38,0.00,,SKC,0.00,209.00,VWS V14.00,2013-10-08 21:18:00,
2013-10-08 16:23:00,76.2,50.1,29.64,South,190,8.0,14.0,40,0.00,,SKC,0.00,267.00,VWS V14.00,2013-10-08 21:23:00,
2013-10-08 16:28:00,76.0,50.0,29.64,SSE,156,7.0,23.0,40,0.00,,SKC,0.00,193.00,VWS V14.00,2013-10-08 21:28:00,
2013-10-08 16:33:00,75.9,49.9,29.64,SE,141,11.0,22.0,40,0.00,,SKC,0.00,244.00,VWS V14.00,2013-10-08 21:33:00,
2013-10-08 16:38:00,75.8,49.1,29.64,SSW,201,10.0,26.0,39,0.00,,SKC,0.00,318.00,VWS V14.00,2013-10-08 21:38:00,
2013-10-08 16:43:00,75.9,49.2,29.64,South,186,12.0,25.0,39,0.00,,SKC,0.00,278.00,VWS V14.00,2013-10-08 21:43:00,
2013-10-08 16:48:00,75.9,49.9,29.64,SSW,195,17.0,25.0,40,0.00,,SKC,0.00,185.00,VWS V14.00,2013-10-08 21:48:00,
2013-10-08 16:53:00,75.6,49.6,29.64,South,176,6.0,22.0,40,0.00,,SKC,0.00,178.00,VWS V14.00,2013-10-08 21:53:00,
2013-10-08 16:58:00,75.3,50.0,29.65,SSW,203,5.0,24.0,41,0.00,,SKC,0.00,90.00,VWS V14.00,2013-10-08 21:58:00,
2013-10-08 17:03:00,74.8,48.9,29.65,SSE,155,10.0,22.0,40,0.00,,SKC,0.00,79.00,VWS V14.00,2013-10-08 22:03:00,
2013-10-08 17:08:00,74.2,49.0,29.64,South,186,12.0,17.0,41,0.00,,SKC,0.00,70.00,VWS V14.00,2013-10-08 22:08:00,
2013-10-08 17:13:00,73.9,49.4,29.64,SSW,192,12.0,24.0,42,0.00,,SKC,0.00,86.00,VWS V14.00,2013-10-08 22:13:00,
2013-10-08 17:18:00,73.6,49.8,29.65,SSE,167,11.0,18.0,43,0.00,,SKC,0.00,183.00,VWS V14.00,2013-10-08 22:18:00,
2013-10-08 17:23:00,73.5,49.7,29.65,South,182,6.0,14.0,43,0.00,,SKC,0.00,188.00,VWS V14.00,2013-10-08 22:23:00,
2013-10-08 17:28:00,73.5,49.7,29.65,SSW,209,4.0,17.0,43,0.00,,SKC,0.00,148.00,VWS V14.00,2013-10-08 22:28:00,
2013-10-08 17:33:00,73.5,50.3,29.65,South,170,14.0,17.0,44,0.00,,SKC,0.00,86.00,VWS V14.00,2013-10-08 22:33:00,
2013-10-08 17:38:00,73.3,50.1,29.65,SSE,164,7.0,14.0,44,0.00,,SKC,0.00,60.00,VWS V14.00,2013-10-08 22:38:00,
2013-10-08 17:43:00,73.1,49.9,29.66,South,186,7.0,14.0,44,0.00,,SKC,0.00,53.00,VWS V14.00,2013-10-08 22:43:00,
2013-10-08 17:48:00,72.8,49.6,29.66,South,190,9.0,12.0,44,0.00,,SKC,0.00,53.00,VWS V14.00,2013-10-08 22:48:00,
2013-10-08 17:53:00,72.6,50.1,29.66,SSE,153,5.0,14.0,45,0.00,,SKC,0.00,37.00,VWS V14.00,2013-10-08 22:53:00,
2013-10-08 17:58:00,72.4,49.9,29.66,South,176,10.0,14.0,45,0.00,,SKC,0.00,58.00,VWS V14.00,2013-10-08 22:58:00,
2013-10-08 18:03:00,72.3,49.8,29.66,SSE,153,7.0,13.0,45,0.00,,SKC,0.00,33.00,VWS V14.00,2013-10-08 23:03:00,
2013-10-08 18:10:00,72.1,50.2,29.67,SSE,153,4.0,11.0,46,0.00,,SKC,0.00,37.00,VWS V14.00,2013-10-08 23:10:00,
2013-10-08 18:15:00,71.8,49.9,29.67,South,182,2.0,7.0,46,0.00,,SKC,0.00,35.00,VWS V14.00,2013-10-08 23:15:00,
2013-10-08 18:20:00,71.6,50.3,29.67,South,170,3.0,10.0,47,0.00,,SKC,0.00,32.00,VWS V14.00,2013-10-08 23:20:00,
2013-10-08 18:25:00,71.3,50.0,29.67,SSE,165,5.0,10.0,47,0.00,,SKC,0.00,28.00,VWS V14.00,2013-10-08 23:25:00,
2013-10-08 18:30:00,71.2,50.0,29.67,SSE,150,3.0,11.0,47,0.00,,SKC,0.00,21.00,VWS V14.00,2013-10-08 23:30:00,
2013-10-08 18:35:00,71.0,49.8,29.67,South,175,4.0,9.0,47,0.00,,SKC,0.00,12.00,VWS V14.00,2013-10-08 23:35:00,
2013-10-08 18:40:00,70.8,49.6,29.67,South,178,2.0,10.0,47,0.00,,SKC,0.00,7.00,VWS V14.00,2013-10-08 23:40:00,
2013-10-08 18:45:00,70.6,50.0,29.68,SSW,196,11.0,11.0,48,0.00,,SKC,0.00,0.00,VWS V14.00,2013-10-08 23:45:00,
2013-10-08 18:50:00,70.4,49.8,29.68,South,176,3.0,7.0,48,0.00,,SKC,0.00,0.00,VWS V14.00,2013-10-08 23:50:00,
2013-10-08 18:55:00,70.1,50.1,29.69,South,178,2.0,4.0,49,0.00,,SKC,0.00,0.00,VWS V14.00,2013-10-08 23:55:00,
2013-10-08 19:00:00,69.8,49.8,29.69,South,184,1.0,4.0,49,0.00,,SKC,0.00,0.00,VWS V14.00,2013-10-09 00:00:00,
2013-10-08 19:05:00,69.5,50.1,29.69,SSE,163,1.0,4.0,50,0.00,,SKC,0.00,0.00,VWS V14.00,2013-10-09 00:05:00,
2013-10-08 19:10:00,69.1,49.7,29.69,South,182,3.0,6.0,50,0.00,,SKC,0.00,0.00,VWS V14.00,2013-10-09 00:10:00,
2013-10-08 19:15:00,68.8,50.0,29.70,South,184,8.0,8.0,51,0.00,,SKC,0.00,0.00,VWS V14.00,2013-10-09 00:15:00,
2013-10-08 19:20:00,68.5,49.2,29.70,South,175,4.0,10.0,50,0.00,,SKC,0.00,0.00,VWS V14.00,2013-10-09 00:20:00,
2013-10-08 19:25:00,68.4,49.6,29.70,South,177,6.0,11.0,51,0.00,,SKC,0.00,0.00,VWS V14.00,2013-10-09 00:25:00,
2013-10-08 19:30:00,68.4,49.1,29.70,SSE,155,4.0,11.0,50,0.00,,SKC,0.00,0.00,VWS V14.00,2013-10-09 00:30:00,
2013-10-08 19:35:00,68.4,49.6,29.71,SE,142,5.0,9.0,51,0.00,,SKC,0.00,0.00,VWS V14.00,2013-10-09 00:35:00,
2013-10-08 19:40:00,68.3,49.0,29.71,SSE,163,2.0,12.0,50,0.00,,SKC,0.00,0.00,VWS V14.00,2013-10-09 00:40:00,
2013-10-08 19:45:00,68.2,49.4,29.71,South,178,4.0,8.0,51,0.00,,SKC,0.00,0.00,VWS V14.00,2013-10-09 00:45:00,
2013-10-08 19:50:00,68.1,49.3,29.71,SE,126,7.0,12.0,51,0.00,,SKC,0.00,0.00,VWS V14.00,2013-10-09 00:50:00,
2013-10-08 19:55:00,68.0,49.2,29.71,South,180,6.0,11.0,51,0.00,,SKC,0.00,0.00,VWS V14.00,2013-10-09 00:55:00,
2013-10-08 20:00:00,67.9,49.1,29.71,SSW,201,10.0,10.0,51,0.00,,SKC,0.00,0.00,VWS V14.00,2013-10-09 01:00:00,
2013-10-08 20:05:00,67.9,49.1,29.71,South,184,5.0,14.0,51,0.00,,SKC,0.00,0.00,VWS V14.00,2013-10-09 01:05:00,
2013-10-08 20:10:00,67.9,49.1,29.71,SSE,166,10.0,14.0,51,0.00,,SKC,0.00,0.00,VWS V14.00,2013-10-09 01:10:00,
2013-10-08 20:15:00,67.9,49.1,29.72,SSW,201,6.0,11.0,51,0.00,,SKC,0.00,0.00,VWS V14.00,2013-10-09 01:15:00,
2013-10-08 20:20:00,67.8,49.5,29.72,South,171,5.0,9.0,52,0.00,,SKC,0.00,0.00,VWS V14.00,2013-10-09 01:20:00,
2013-10-08 20:25:00,67.6,49.4,29.72,SSE,150,4.0,7.0,52,0.00,,SKC,0.00,0.00,VWS V14.00,2013-10-09 01:25:00,
2013-10-08 20:30:00,67.4,49.2,29.72,SSE,156,10.0,13.0,52,0.00,,SKC,0.00,0.00,VWS V14.00,2013-10-09 01:30:00,
2013-10-08 20:35:00,67.2,49.0,29.72,ESE,123,5.0,7.0,52,0.00,,SKC,0.00,0.00,VWS V14.00,2013-10-09 01:35:00,
2013-10-08 20:41:00,67.0,49.3,29.72,South,169,9.0,9.0,53,0.00,,SKC,0.00,0.00,VWS V14.00,2013-10-09 01:41:00,
2013-10-08 20:46:00,66.9,49.2,29.72,South,190,6.0,10.0,53,0.00,,SKC,0.00,0.00,VWS V14.00,2013-10-09 01:46:00,
2013-10-08 20:51:00,66.8,49.1,29.72,SSE,154,6.0,9.0,53,0.00,,SKC,0.00,0.00,VWS V14.00,2013-10-09 01:51:00,
2013-10-08 20:56:00,66.6,49.0,29.72,South,171,3.0,9.0,53,0.00,,SKC,0.00,0.00,VWS V14.00,2013-10-09 01:56:00,
2013-10-08 21:01:00,66.3,49.2,29.72,SE,145,4.0,7.0,54,0.00,,SKC,0.00,0.00,VWS V14.00,2013-10-09 02:01:00,
2013-10-08 21:06:00,66.0,49.4,29.72,South,176,6.0,11.0,55,0.00,,SKC,0.00,0.00,VWS V14.00,2013-10-09 02:06:00,
2013-10-08 21:11:00,65.8,49.2,29.73,SSE,163,5.0,7.0,55,0.00,,SKC,0.00,0.00,VWS V14.00,2013-10-09 02:11:00,
2013-10-08 21:16:00,65.4,49.3,29.72,SSE,163,6.0,8.0,56,0.00,,SKC,0.00,0.00,VWS V14.00,2013-10-09 02:16:00,
2013-10-08 21:21:00,65.0,49.4,29.73,South,171,2.0,9.0,57,0.00,,SKC,0.00,0.00,VWS V14.00,2013-10-09 02:21:00,
2013-10-08 21:26:00,64.7,49.1,29.73,South,173,6.0,8.0,57,0.00,,SKC,0.00,0.00,VWS V14.00,2013-10-09 02:26:00,
2013-10-08 21:31:00,64.2,49.1,29.73,SSE,163,4.0,7.0,58,0.00,,SKC,0.00,0.00,VWS V14.00,2013-10-09 02:31:00,
2013-10-08 21:36:00,63.9,48.8,29.73,South,173,5.0,7.0,58,0.00,,SKC,0.00,0.00,VWS V14.00,2013-10-09 02:36:00,
2013-10-08 21:41:00,63.6,49.0,29.73,SSE,162,6.0,11.0,59,0.00,,SKC,0.00,0.00,VWS V14.00,2013-10-09 02:41:00,
2013-10-08 21:46:00,63.4,49.3,29.73,SSE,167,7.0,9.0,60,0.00,,SKC,0.00,0.00,VWS V14.00,2013-10-09 02:46:00,
2013-10-08 21:51:00,63.4,49.3,29.74,SSE,152,6.0,10.0,60,0.00,,SKC,0.00,0.00,VWS V14.00,2013-10-09 02:51:00,
2013-10-08 21:56:00,63.4,49.3,29.74,South,188,9.0,10.0,60,0.00,,SKC,0.00,0.00,VWS V14.00,2013-10-09 02:56:00,
2013-10-08 22:01:00,63.4,49.3,29.74,SE,144,6.0,14.0,60,0.00,,SKC,0.00,0.00,VWS V14.00,2013-10-09 03:01:00,
2013-10-08 22:06:00,63.4,48.8,29.74,SE,142,4.0,14.0,59,0.00,,SKC,0.00,0.00,VWS V14.00,2013-10-09 03:06:00,
2013-10-08 22:11:00,63.5,48.9,29.74,SE,142,6.0,9.0,59,0.00,,SKC,0.00,0.00,VWS V14.00,2013-10-09 03:11:00,
2013-10-08 22:16:00,63.5,48.9,29.74,SSW,196,7.0,11.0,59,0.00,,SKC,0.00,0.00,VWS V14.00,2013-10-09 03:16:00,
2013-10-08 22:21:00,63.6,49.0,29.74,South,186,5.0,10.0,59,0.00,,SKC,0.00,0.00,VWS V14.00,2013-10-09 03:21:00,
2013-10-08 22:26:00,63.7,48.7,29.74,SSE,150,5.0,12.0,58,0.00,,SKC,0.00,0.00,VWS V14.00,2013-10-09 03:26:00,
2013-10-08 22:31:00,63.8,48.8,29.74,South,180,3.0,14.0,58,0.00,,SKC,0.00,0.00,VWS V14.00,2013-10-09 03:31:00,
2013-10-08 22:36:00,63.8,48.8,29.74,SSW,210,10.0,13.0,58,0.00,,SKC,0.00,0.00,VWS V14.00,2013-10-09 03:36:00,
2013-10-08 22:41:00,63.7,48.7,29.75,SSE,165,10.0,11.0,58,0.00,,SKC,0.00,0.00,VWS V14.00,2013-10-09 03:41:00,
2013-10-08 22:46:00,63.7,48.7,29.75,South,171,15.0,15.0,58,0.00,,SKC,0.00,0.00,VWS V14.00,2013-10-09 03:46:00,
2013-10-08 22:51:00,63.7,48.7,29.75,South,180,7.0,13.0,58,0.00,,SKC,0.00,0.00,VWS V14.00,2013-10-09 03:51:00,
2013-10-08 22:56:00,63.6,48.6,29.75,South,173,14.0,14.0,58,0.00,,SKC,0.00,0.00,VWS V14.00,2013-10-09 03:56:00,
2013-10-08 23:01:00,63.5,48.5,29.75,SE,129,8.0,13.0,58,0.00,,SKC,0.00,0.00,VWS V14.00,2013-10-09 04:01:00,
2013-10-08 23:03:00,63.4,48.8,29.75,South,181,5.0,13.0,59,0.00,,SKC,0.00,0.00,VWS V14.00,2013-10-09 04:03:00,
2013-10-08 23:06:00,63.4,48.8,29.75,SE,146,6.0,17.0,59,0.00,,SKC,0.00,0.00,VWS V14.00,2013-10-09 04:06:00,
2013-10-08 23:08:00,63.3,48.7,29.75,ESE,122,10.0,17.0,59,0.00,,SKC,0.00,0.00,VWS V14.00,2013-10-09 04:08:00,
2013-10-08 23:13:00,63.2,48.7,29.75,SSE,152,9.0,17.0,59,0.00,,SKC,0.00,0.00,VWS V14.00,2013-10-09 04:13:00,
2013-10-08 23:18:00,63.0,48.5,29.75,South,178,3.0,18.0,59,0.00,,SKC,0.00,0.00,VWS V14.00,2013-10-09 04:18:00,
2013-10-08 23:23:00,62.8,48.7,29.75,SSE,159,7.0,13.0,60,0.00,,SKC,0.00,0.00,VWS V14.00,2013-10-09 04:23:00,
2013-10-08 23:28:00,62.6,49.0,29.76,SSE,167,3.0,13.0,61,0.00,,SKC,0.00,0.00,VWS V14.00,2013-10-09 04:28:00,
2013-10-08 23:33:00,62.4,48.8,29.76,SSW,194,6.0,13.0,61,0.00,,SKC,0.00,0.00,VWS V14.00,2013-10-09 04:33:00,
2013-10-08 23:38:00,62.2,48.6,29.76,SSE,156,4.0,17.0,61,0.00,,SKC,0.00,0.00,VWS V14.00,2013-10-09 04:38:00,
2013-10-08 23:43:00,61.9,48.3,29.76,SE,127,9.0,12.0,61,0.00,,SKC,0.00,0.00,VWS V14.00,2013-10-09 04:43:00,
2013-10-08 23:48:00,61.7,48.6,29.76,South,171,3.0,14.0,62,0.00,,SKC,0.00,0.00,VWS V14.00,2013-10-09 04:48:00,
2013-10-08 23:53:00,61.5,48.4,29.76,South,183,4.0,12.0,62,0.00,,SKC,0.00,0.00,VWS V14.00,2013-10-09 04:53:00,
2013-10-08 23:58:00,61.3,48.6,29.76,South,184,7.0,13.0,63,0.00,,SKC,0.00,0.00,VWS V14.00,2013-10-09 04:58:00,